{"data":{"norad_id":67262,"epoch":"2026-05-25T03:59:03.086016Z","epoch_age_seconds":56579,"freshness":"FRESH","line1":"1 67262U 25313Q   26145.16600794  .00010986  00000+0  46271-3 0  9994","line2":"2 67262  97.3941 220.2541 0015856  87.3652 272.9400 15.23407161 22457","mean_motion":15.23407161,"eccentricity":0.0015856,"inclination_deg":97.3941,"raan_deg":220.2541,"arg_perigee_deg":87.3652,"mean_anomaly_deg":272.94,"bstar":0.00046271,"rev_number":2245,"period_min":94.524959371646,"perigee_km":484.67363592293,"apogee_km":506.47154377426,"semimajor_km":6873.7095898486,"source":"CELESTRAK","updated_at":"2026-05-25T13:38:06.847677Z"}}